Private Wetterstation Sandau
Wetterdaten: Woche 24.12.12 - 30.12.12 (KW52)
Datum Zeit Temp. A. Feuchte A. Luftdruck Regen Wind Richtung Taupunkt Windchill
24.12.2012 00:00 4,2 C 95 % 1006,6 hPa 2,1 l/m 7,7 km/h (2 Bft) W-SW 3,4 C 2,5 C
24.12.2012 01:00 3,9 C 95 % 1006,6 hPa 1,6 l/m 3,4 km/h (1 Bft) W-SW 3,2 C 3,7 C
24.12.2012 02:00 4,1 C 95 % 1007,3 hPa 0,5 l/m 5,0 km/h (1 Bft) W-SW 3,3 C 3,3 C
24.12.2012 03:00 4,5 C 95 % 1007,3 hPa 0,5 l/m 6,9 km/h (2 Bft) W-SW 3,8 C 3,0 C
24.12.2012 04:00 4,9 C 95 % 1007,5 hPa 0,0 l/m 8,7 km/h (2 Bft) W-SW 4,2 C 3,1 C
24.12.2012 05:00 4,8 C 96 % 1007,6 hPa 0,0 l/m 8,0 km/h (2 Bft) W-SW 4,1 C 3,1 C
24.12.2012 06:00 4,2 C 95 % 1007,7 hPa 0,0 l/m 7,3 km/h (2 Bft) W-SW 3,6 C 2,5 C
24.12.2012 07:00 4,2 C 95 % 1008,1 hPa 0,0 l/m 6,9 km/h (2 Bft) SW 3,6 C 2,9 C
24.12.2012 08:00 4,3 C 96 % 1008,4 hPa 0,0 l/m 5,1 km/h (1 Bft) S-SW 3,7 C 3,5 C
24.12.2012 09:00 4,4 C 96 % 1008,6 hPa 0,0 l/m 4,1 km/h (1 Bft) S-SW 3,8 C 3,9 C
24.12.2012 10:00 5,0 C 96 % 1008,9 hPa 0,0 l/m 4,2 km/h (1 Bft) S-SW 4,4 C 4,7 C
24.12.2012 11:00 5,3 C 95 % 1008,9 hPa 0,0 l/m 3,3 km/h (1 Bft) S 4,5 C 5,0 C
24.12.2012 12:00 5,1 C 96 % 1008,4 hPa 0,0 l/m 4,8 km/h (1 Bft) S 4,6 C 4,6 C
24.12.2012 13:00 5,3 C 96 % 1007,7 hPa 0,0 l/m 4,7 km/h (1 Bft) S-SO 4,7 C 4,7 C
24.12.2012 14:00 5,5 C 96 % 1007,2 hPa 0,0 l/m 4,7 km/h (1 Bft) S 4,9 C 4,8 C
24.12.2012 15:00 5,8 C 96 % 1006,5 hPa 0,0 l/m 4,1 km/h (1 Bft) SO 5,2 C 5,4 C
24.12.2012 16:00 6,0 C 95 % 1006,0 hPa 0,0 l/m 4,4 km/h (1 Bft) SO 5,3 C 5,5 C
24.12.2012 17:00 5,7 C 96 % 1005,1 hPa 0,0 l/m 3,7 km/h (1 Bft) SO 5,1 C 5,3 C
24.12.2012 18:00 6,0 C 96 % 1003,6 hPa 0,0 l/m 4,0 km/h (1 Bft) SO 5,4 C 5,7 C
24.12.2012 19:00 5,8 C 96 % 1002,5 hPa 0,0 l/m 4,0 km/h (1 Bft) SO 5,2 C 5,3 C
24.12.2012 20:00 6,1 C 96 % 1001,4 hPa 0,0 l/m 7,1 km/h (2 Bft) S-SO 5,5 C 4,8 C
24.12.2012 21:00 6,6 C 96 % 1000,4 hPa 0,0 l/m 9,8 km/h (2 Bft) S-SW 6,0 C 4,8 C
24.12.2012 22:00 6,5 C 96 % 999,7 hPa 0,0 l/m 8,0 km/h (2 Bft) S 5,9 C 5,0 C
24.12.2012 23:00 7,2 C 96 % 999,4 hPa 0,0 l/m 15,6 km/h (3 Bft) S-SW 6,5 C 4,5 C
25.12.2012 00:00 8,3 C 92 % 999,6 hPa 0,0 l/m 14,8 km/h (3 Bft) SW 7,1 C 5,9 C
25.12.2012 01:00 8,3 C 88 % 999,6 hPa 0,0 l/m 14,6 km/h (3 Bft) S 6,4 C 6,0 C
25.12.2012 02:00 8,2 C 87 % 999,6 hPa 0,0 l/m 9,7 km/h (2 Bft) SW 6,2 C 6,6 C
25.12.2012 03:00 8,9 C 86 % 999,5 hPa 0,0 l/m 16,4 km/h (3 Bft) S-SW 6,7 C 6,5 C
25.12.2012 04:00 9,4 C 84 % 998,9 hPa 0,0 l/m 15,8 km/h (3 Bft) SW 6,9 C 7,2 C
25.12.2012 05:00 9,0 C 84 % 998,6 hPa 0,0 l/m 7,4 km/h (2 Bft) S-SW 6,5 C 8,1 C
25.12.2012 06:00 8,1 C 86 % 998,2 hPa 0,0 l/m 7,0 km/h (2 Bft) S-SW 5,9 C 7,2 C
25.12.2012 07:00 7,6 C 87 % 997,7 hPa 0,0 l/m 10,9 km/h (2 Bft) S-SW 5,7 C 5,7 C
25.12.2012 08:00 8,1 C 87 % 997,1 hPa 0,0 l/m 12,0 km/h (2 Bft) S 6,0 C 6,0 C
25.12.2012 09:00 8,8 C 85 % 997,1 hPa 0,0 l/m 11,2 km/h (2 Bft) S 6,3 C 7,0 C
25.12.2012 10:00 9,9 C 79 % 997,3 hPa 0,0 l/m 14,5 km/h (3 Bft) W-SW 6,5 C 8,0 C
25.12.2012 11:00 10,5 C 76 % 997,2 hPa 0,0 l/m 16,8 km/h (3 Bft) SW 6,5 C 10,5 C
25.12.2012 12:00 10,7 C 77 % 997,3 hPa 0,0 l/m 15,1 km/h (3 Bft) W-SW 6,8 C 10,7 C
25.12.2012 13:00 9,9 C 82 % 998,0 hPa 0,0 l/m 16,3 km/h (3 Bft) W 6,9 C 8,5 C
25.12.2012 14:00 9,2 C 84 % 998,5 hPa 0,0 l/m 10,1 km/h (2 Bft) W 6,6 C 7,8 C
25.12.2012 15:00 9,0 C 84 % 999,1 hPa 0,0 l/m 13,4 km/h (3 Bft) W-SW 6,5 C 7,1 C
25.12.2012 16:00 8,7 C 84 % 1000,2 hPa 0,0 l/m 15,8 km/h (3 Bft) W-SW 6,2 C 6,3 C
25.12.2012 17:00 7,8 C 85 % 1001,0 hPa 0,0 l/m 10,1 km/h (2 Bft) W-SW 5,5 C 6,2 C
25.12.2012 18:00 7,3 C 87 % 1001,3 hPa 0,0 l/m 6,6 km/h (2 Bft) SW 5,3 C 6,3 C
25.12.2012 19:00 6,9 C 89 % 1001,4 hPa 0,0 l/m 3,6 km/h (1 Bft) S 5,1 C 6,5 C
25.12.2012 20:00 6,4 C 89 % 1001,1 hPa 0,0 l/m 7,9 km/h (2 Bft) S-SW 4,7 C 5,0 C
25.12.2012 21:00 6,3 C 87 % 1000,9 hPa 0,0 l/m 12,9 km/h (3 Bft) S 4,3 C 4,0 C
25.12.2012 22:00 6,2 C 87 % 1000,6 hPa 0,0 l/m 13,5 km/h (3 Bft) S-SW 4,2 C 3,7 C
25.12.2012 23:00 6,6 C 87 % 1000,8 hPa 0,0 l/m 13,2 km/h (3 Bft) S-SW 4,6 C 4,1 C
26.12.2012 00:00 7,1 C 86 % 1000,8 hPa 0,0 l/m 14,1 km/h (3 Bft) W-SW 4,8 C 4,5 C
26.12.2012 01:00 7,6 C 84 % 1001,0 hPa 0,0 l/m 14,8 km/h (3 Bft) W-SW 5,0 C 5,1 C
26.12.2012 02:00 8,0 C 82 % 1001,3 hPa 0,0 l/m 16,0 km/h (3 Bft) W-SW 5,2 C 5,4 C
26.12.2012 03:00 8,3 C 81 % 1001,6 hPa 0,0 l/m 16,7 km/h (3 Bft) SW 5,2 C 5,7 C
26.12.2012 04:00 8,2 C 80 % 1001,8 hPa 0,0 l/m 16,4 km/h (3 Bft) W-SW 5,0 C 5,7 C
26.12.2012 05:00 7,7 C 82 % 1002,3 hPa 0,0 l/m 17,4 km/h (3 Bft) W-SW 4,8 C 4,9 C
26.12.2012 06:00 7,1 C 82 % 1002,9 hPa 0,0 l/m 12,5 km/h (3 Bft) W 4,3 C 4,8 C
26.12.2012 07:00 6,5 C 84 % 1003,5 hPa 0,0 l/m 16,3 km/h (3 Bft) W-SW 4,0 C 3,5 C
26.12.2012 08:00 6,7 C 86 % 1004,3 hPa 0,0 l/m 13,0 km/h (3 Bft) SW 4,4 C 4,2 C
26.12.2012 09:00 6,8 C 86 % 1005,0 hPa 0,0 l/m 17,1 km/h (3 Bft) W 4,6 C 3,8 C
26.12.2012 10:00 6,8 C 84 % 1005,5 hPa 0,0 l/m 15,3 km/h (3 Bft) W-SW 4,3 C 4,0 C
26.12.2012 11:00 7,6 C 83 % 1006,0 hPa 0,0 l/m 15,3 km/h (3 Bft) W-SW 4,8 C 4,9 C
26.12.2012 12:00 7,8 C 81 % 1006,2 hPa 0,0 l/m 11,5 km/h (2 Bft) W-SW 4,8 C 5,8 C
26.12.2012 13:00 8,0 C 80 % 1005,9 hPa 0,0 l/m 14,5 km/h (3 Bft) W-SW 4,8 C 5,7 C
26.12.2012 14:00 7,4 C 81 % 1005,9 hPa 0,0 l/m 12,7 km/h (3 Bft) W-SW 4,4 C 5,2 C
26.12.2012 15:00 7,0 C 81 % 1006,5 hPa 0,0 l/m 11,1 km/h (2 Bft) W-SW 4,0 C 4,9 C
26.12.2012 16:00 6,3 C 84 % 1006,7 hPa 0,0 l/m 11,7 km/h (2 Bft) W-SW 3,8 C 4,0 C
26.12.2012 17:00 6,1 C 85 % 1006,8 hPa 0,0 l/m 10,5 km/h (2 Bft) SW 3,7 C 4,0 C
26.12.2012 18:00 5,9 C 85 % 1007,3 hPa 0,0 l/m 13,7 km/h (3 Bft) W-SW 3,6 C 3,2 C
26.12.2012 19:00 5,2 C 86 % 1007,2 hPa 0,0 l/m 10,1 km/h (2 Bft) SW 3,0 C 3,0 C
26.12.2012 20:00 4,7 C 87 % 1007,1 hPa 0,0 l/m 11,3 km/h (2 Bft) SW 2,8 C 2,2 C
26.12.2012 21:00 4,2 C 88 % 1007,0 hPa 0,0 l/m 7,4 km/h (2 Bft) S-SW 2,4 C 2,6 C
26.12.2012 22:00 4,7 C 87 % 1006,7 hPa 0,0 l/m 7,8 km/h (2 Bft) S-SW 2,7 C 3,0 C
26.12.2012 23:00 4,4 C 86 % 1006,3 hPa 0,0 l/m 8,0 km/h (2 Bft) S-SW 2,3 C 2,6 C
27.12.2012 00:00 4,0 C 88 % 1005,5 hPa 0,0 l/m 9,4 km/h (2 Bft) S 2,2 C 1,9 C
27.12.2012 01:00 4,7 C 89 % 1004,1 hPa 0,0 l/m 8,8 km/h (2 Bft) S-SW 3,0 C 2,7 C
27.12.2012 02:00 5,2 C 90 % 1002,4 hPa 0,5 l/m 10,3 km/h (2 Bft) S-SW 3,7 C 3,2 C
27.12.2012 03:00 6,0 C 90 % 1001,0 hPa 0,5 l/m 17,3 km/h (3 Bft) S-SW 4,5 C 2,8 C
27.12.2012 04:00 6,3 C 91 % 999,9 hPa 1,6 l/m 14,2 km/h (3 Bft) W-SW 4,9 C 3,7 C
27.12.2012 05:00 6,4 C 91 % 999,2 hPa 0,0 l/m 15,7 km/h (3 Bft) W-SW 5,0 C 3,5 C
27.12.2012 06:00 6,9 C 90 % 999,2 hPa 0,0 l/m 13,8 km/h (3 Bft) W-SW 5,4 C 4,4 C
27.12.2012 07:00 7,1 C 89 % 999,5 hPa 0,0 l/m 17,3 km/h (3 Bft) W-SW 5,4 C 4,1 C
27.12.2012 08:00 6,9 C 89 % 1000,0 hPa 1,6 l/m 15,0 km/h (3 Bft) W-NW 5,2 C 4,2 C
27.12.2012 09:00 6,7 C 88 % 1000,5 hPa 1,0 l/m 14,9 km/h (3 Bft) W-SW 4,9 C 4,0 C
27.12.2012 10:00 7,2 C 84 % 1001,1 hPa 0,0 l/m 18,2 km/h (3 Bft) W-SW 4,7 C 4,1 C
27.12.2012 11:00 7,7 C 81 % 1001,0 hPa 0,0 l/m 19,5 km/h (3 Bft) W-SW 4,7 C 4,6 C
27.12.2012 12:00 8,1 C 77 % 1000,9 hPa 0,0 l/m 22,5 km/h (4 Bft) W 4,4 C 4,8 C
27.12.2012 13:00 8,1 C 75 % 1000,7 hPa 0,0 l/m 24,3 km/h (4 Bft) W-SW 3,9 C 4,7 C
27.12.2012 14:00 8,0 C 74 % 1000,8 hPa 0,0 l/m 20,8 km/h (4 Bft) W-SW 3,6 C 4,9 C
27.12.2012 15:00 7,6 C 75 % 1001,3 hPa 0,0 l/m 14,8 km/h (3 Bft) W 3,4 C 5,0 C
27.12.2012 16:00 6,4 C 80 % 1001,8 hPa 0,0 l/m 11,6 km/h (2 Bft) W-SW 3,2 C 4,1 C
27.12.2012 17:00 5,5 C 83 % 1002,4 hPa 0,0 l/m 10,1 km/h (2 Bft) W-SW 2,9 C 3,3 C
27.12.2012 18:00 4,9 C 86 % 1003,2 hPa 0,0 l/m 10,1 km/h (2 Bft) W-SW 2,8 C 2,6 C
27.12.2012 19:00 5,0 C 88 % 1004,2 hPa 0,0 l/m 8,4 km/h (2 Bft) W-SW 3,2 C 3,1 C
27.12.2012 20:00 5,0 C 88 % 1005,6 hPa 0,0 l/m 5,7 km/h (1 Bft) W-NW 3,2 C 3,9 C
27.12.2012 21:00 4,6 C 88 % 1007,3 hPa 0,0 l/m 8,7 km/h (2 Bft) N-NO 2,7 C 2,6 C
27.12.2012 22:00 3,6 C 81 % 1009,3 hPa 0,0 l/m 12,8 km/h (3 Bft) N-NO 0,7 C 0,6 C
27.12.2012 23:00 2,3 C 80 % 1011,5 hPa 0,0 l/m 10,4 km/h (2 Bft) N -0,8 C -0,6 C
28.12.2012 00:00 1,0 C 77 % 1013,4 hPa 0,0 l/m 9,3 km/h (2 Bft) N-NO -2,6 C -1,6 C
28.12.2012 01:00 0,1 C 79 % 1015,1 hPa 0,0 l/m 5,4 km/h (1 Bft) N-NO -3,2 C -1,4 C
28.12.2012 02:00 -0,7 C 82 % 1017,0 hPa 0,0 l/m 2,7 km/h (1 Bft) N-NW -3,3 C -0,8 C
28.12.2012 03:00 -1,1 C 84 % 1019,0 hPa 0,0 l/m 5,7 km/h (1 Bft) NW -3,5 C -2,7 C
28.12.2012 04:00 -1,5 C 85 % 1021,0 hPa 0,0 l/m 4,9 km/h (1 Bft) NW -3,7 C -3,0 C
28.12.2012 05:00 -1,9 C 86 % 1022,1 hPa 0,0 l/m 5,5 km/h (1 Bft) NW -3,9 C -3,4 C
28.12.2012 06:00 -2,3 C 86 % 1023,4 hPa 0,0 l/m 4,0 km/h (1 Bft) W-NW -4,3 C -3,4 C
28.12.2012 07:00 -2,7 C 86 % 1024,5 hPa 0,0 l/m 3,3 km/h (1 Bft) W-SW -4,7 C -3,4 C
28.12.2012 08:00 -3,1 C 87 % 1025,8 hPa 0,0 l/m 2,5 km/h (1 Bft) W-SW -5,0 C -3,6 C
28.12.2012 09:00 -2,7 C 88 % 1026,9 hPa 0,0 l/m 5,4 km/h (1 Bft) W-SW -4,4 C -4,5 C
28.12.2012 10:00 -1,8 C 87 % 1027,9 hPa 0,0 l/m 3,8 km/h (1 Bft) SW -3,7 C -2,8 C
28.12.2012 11:00 -0,7 C 84 % 1028,3 hPa 0,0 l/m 4,9 km/h (1 Bft) S-SW -3,0 C -2,0 C
28.12.2012 12:00 0,3 C 81 % 1028,5 hPa 0,0 l/m 6,1 km/h (2 Bft) W-SW -2,6 C -1,1 C
28.12.2012 13:00 1,1 C 76 % 1028,3 hPa 0,0 l/m 6,6 km/h (2 Bft) S-SW -2,6 C -0,6 C
28.12.2012 14:00 0,7 C 76 % 1028,0 hPa 0,0 l/m 6,5 km/h (2 Bft) S-SW -3,0 C -0,9 C
28.12.2012 15:00 0,1 C 79 % 1028,5 hPa 0,0 l/m 4,6 km/h (1 Bft) S -3,2 C -0,6 C
28.12.2012 16:00 -0,6 C 80 % 1028,1 hPa 0,0 l/m 5,4 km/h (1 Bft) SO -3,7 C -2,1 C
28.12.2012 17:00 -0,8 C 81 % 1027,6 hPa 0,0 l/m 7,9 km/h (2 Bft) S-SO -3,7 C -3,3 C
28.12.2012 18:00 -0,8 C 82 % 1027,1 hPa 0,0 l/m 6,5 km/h (2 Bft) S-SO -3,6 C -2,9 C
28.12.2012 19:00 -0,8 C 83 % 1026,2 hPa 0,0 l/m 7,3 km/h (2 Bft) S-SO -3,3 C -3,1 C
28.12.2012 20:00 -0,0 C 84 % 1025,7 hPa 0,0 l/m 9,2 km/h (2 Bft) S-SO -2,4 C -2,7 C
28.12.2012 21:00 0,7 C 84 % 1025,0 hPa 0,0 l/m 7,6 km/h (2 Bft) S -1,6 C -1,5 C
28.12.2012 22:00 1,3 C 84 % 1024,3 hPa 0,0 l/m 7,3 km/h (2 Bft) S-SW -1,1 C -0,5 C
28.12.2012 23:00 1,7 C 85 % 1023,6 hPa 0,0 l/m 8,8 km/h (2 Bft) S-SO -0,6 C -0,7 C
29.12.2012 00:00 2,1 C 85 % 1023,0 hPa 0,0 l/m 8,4 km/h (2 Bft) S-SO -0,1 C 0,2 C
29.12.2012 01:00 2,5 C 86 % 1022,4 hPa 0,0 l/m 7,3 km/h (2 Bft) S-SO 0,4 C 0,8 C
29.12.2012 02:00 2,8 C 87 % 1021,7 hPa 0,0 l/m 7,4 km/h (2 Bft) S 0,9 C 0,8 C
29.12.2012 03:00 3,1 C 89 % 1021,1 hPa 0,0 l/m 5,5 km/h (1 Bft) S 1,4 C 1,9 C
29.12.2012 04:00 3,6 C 89 % 1020,7 hPa 0,0 l/m 8,8 km/h (2 Bft) S-SW 1,9 C 1,6 C
29.12.2012 05:00 4,2 C 88 % 1020,4 hPa 0,0 l/m 10,1 km/h (2 Bft) S 2,5 C 1,8 C
29.12.2012 06:00 4,7 C 88 % 1020,0 hPa 0,0 l/m 10,1 km/h (2 Bft) S 2,8 C 2,3 C
29.12.2012 07:00 5,1 C 88 % 1019,7 hPa 0,0 l/m 13,2 km/h (3 Bft) S 3,3 C 2,2 C
29.12.2012 08:00 5,6 C 89 % 1019,7 hPa 0,0 l/m 13,6 km/h (3 Bft) W-SW 3,9 C 2,7 C
29.12.2012 09:00 5,9 C 88 % 1019,7 hPa 0,0 l/m 11,4 km/h (2 Bft) S-SW 4,1 C 3,5 C
29.12.2012 10:00 6,2 C 89 % 1019,5 hPa 0,0 l/m 12,8 km/h (3 Bft) S-SW 4,5 C 3,7 C
29.12.2012 11:00 6,8 C 88 % 1018,7 hPa 0,0 l/m 11,0 km/h (2 Bft) S 4,9 C 4,7 C
29.12.2012 12:00 7,4 C 87 % 1018,1 hPa 0,0 l/m 7,2 km/h (2 Bft) S-SW 5,3 C 6,4 C
29.12.2012 13:00 7,8 C 86 % 1017,5 hPa 0,0 l/m 8,4 km/h (2 Bft) S-SW 5,6 C 6,4 C
29.12.2012 14:00 8,0 C 86 % 1016,8 hPa 0,0 l/m 8,0 km/h (2 Bft) S-SO 5,8 C 6,8 C
29.12.2012 15:00 8,1 C 86 % 1015,9 hPa 0,0 l/m 8,6 km/h (2 Bft) S-SO 5,9 C 6,9 C
29.12.2012 16:00 7,0 C 87 % 1015,3 hPa 0,0 l/m 8,8 km/h (2 Bft) S-SW 5,0 C 5,5 C
29.12.2012 17:00 6,2 C 88 % 1014,7 hPa 0,0 l/m 4,5 km/h (1 Bft) S-SO 4,4 C 5,6 C
29.12.2012 18:00 5,8 C 89 % 1013,9 hPa 0,0 l/m 4,0 km/h (1 Bft) S-SO 4,2 C 5,2 C
29.12.2012 19:00 6,3 C 90 % 1013,0 hPa 0,0 l/m 9,0 km/h (2 Bft) S-SO 4,8 C 4,5 C
29.12.2012 20:00 6,9 C 86 % 1012,0 hPa 0,0 l/m 11,5 km/h (2 Bft) S-SO 4,7 C 4,7 C
29.12.2012 21:00 6,6 C 83 % 1011,3 hPa 0,0 l/m 8,0 km/h (2 Bft) S-SO 3,9 C 5,1 C
29.12.2012 22:00 6,0 C 83 % 1010,9 hPa 0,0 l/m 9,8 km/h (2 Bft) S-SW 3,4 C 4,0 C
29.12.2012 23:00 6,1 C 83 % 1010,6 hPa 0,0 l/m 12,1 km/h (2 Bft) S-SW 3,4 C 3,6 C
30.12.2012 00:00 6,0 C 82 % 1010,4 hPa 0,0 l/m 8,9 km/h (2 Bft) S 3,1 C 4,1 C
30.12.2012 01:00 5,5 C 84 % 1010,1 hPa 0,0 l/m 11,3 km/h (2 Bft) SW 3,0 C 3,2 C
30.12.2012 02:00 5,6 C 84 % 1010,2 hPa 0,0 l/m 7,0 km/h (2 Bft) S-SW 3,1 C 4,2 C
30.12.2012 03:00 5,7 C 84 % 1010,0 hPa 0,0 l/m 5,6 km/h (1 Bft) S-SW 3,3 C 4,7 C
30.12.2012 04:00 6,0 C 84 % 1009,9 hPa 0,0 l/m 9,4 km/h (2 Bft) S-SW 3,5 C 4,3 C
30.12.2012 05:00 6,4 C 83 % 1010,1 hPa 0,0 l/m 9,1 km/h (2 Bft) S 3,7 C 4,6 C
30.12.2012 06:00 6,3 C 83 % 1010,0 hPa 0,0 l/m 6,0 km/h (2 Bft) S-SW 3,7 C 5,5 C
30.12.2012 07:00 6,8 C 83 % 1010,2 hPa 0,0 l/m 11,2 km/h (2 Bft) SW 4,2 C 4,9 C
30.12.2012 08:00 8,2 C 78 % 1010,7 hPa 0,0 l/m 13,8 km/h (3 Bft) W-SW 4,6 C 5,8 C
30.12.2012 09:00 7,9 C 78 % 1011,3 hPa 0,0 l/m 14,9 km/h (3 Bft) SW 4,4 C 5,5 C
30.12.2012 10:00 7,7 C 79 % 1011,6 hPa 0,0 l/m 10,1 km/h (2 Bft) W-SW 4,4 C 6,1 C
30.12.2012 11:00 8,2 C 75 % 1011,6 hPa 0,0 l/m 17,4 km/h (3 Bft) SW 4,0 C 5,4 C
30.12.2012 12:00 8,4 C 74 % 1011,4 hPa 0,0 l/m 14,5 km/h (3 Bft) W-SW 3,9 C 6,1 C
30.12.2012 13:00 6,9 C 77 % 1011,6 hPa 0,0 l/m 18,5 km/h (3 Bft) SW 3,2 C 3,9 C
30.12.2012 14:00 6,7 C 80 % 1011,9 hPa 0,0 l/m 13,4 km/h (3 Bft) SW 3,4 C 4,2 C
30.12.2012 15:00 6,4 C 80 % 1012,1 hPa 0,0 l/m 16,1 km/h (3 Bft) W-SW 3,3 C 3,6 C
30.12.2012 16:00 5,9 C 78 % 1012,6 hPa 0,0 l/m 14,9 km/h (3 Bft) SW 2,4 C 3,0 C
30.12.2012 17:00 5,3 C 80 % 1013,0 hPa 0,0 l/m 10,1 km/h (2 Bft) SW 2,2 C 3,1 C
30.12.2012 18:00 5,1 C 81 % 1013,1 hPa 0,0 l/m 13,8 km/h (3 Bft) S-SW 2,2 C 2,3 C
30.12.2012 19:00 5,4 C 77 % 1013,4 hPa 0,0 l/m 13,0 km/h (3 Bft) W-SW 1,7 C 2,8 C
30.12.2012 20:00 4,9 C 79 % 1013,8 hPa 0,0 l/m 12,3 km/h (3 Bft) S-SW 1,5 C 2,2 C
30.12.2012 21:00 4,7 C 81 % 1014,0 hPa 0,0 l/m 9,1 km/h (2 Bft) SW 1,7 C 2,7 C
30.12.2012 22:00 5,1 C 80 % 1014,2 hPa 0,0 l/m 13,7 km/h (3 Bft) W-SW 2,0 C 2,2 C
30.12.2012 23:00 5,6 C 82 % 1014,5 hPa 0,0 l/m 17,0 km/h (3 Bft) SW 2,7 C 2,3 C
Min-Datum _ 28.12.12 30.12.12 25.12.12 - 24.12.12 - 28.12.12 28.12.12
_ Min-Zeit 08:11 12:56 08:51 - 02:51 - 08:11 09:31
Minimum _ -3,1 C 71 % 996,8 hPa - 0,0 km/h (0 Bft) - -5,1 C -6,2 C
Max-Datum _ 25.12.12 24.12.12 28.12.12 24.12.12 27.12.12 - 25.12.12 25.12.12
_ Max-Zeit 12:01 05:21 12:46 00:46 13:01 - 00:16 12:01
Maximum _ 10,8 C 96 % 1028,7 hPa 2,1 l/m 40,0 km/h
W-SW (6 Bft)
- 7,5 C 10,8 C
Durchschnitt _ 5,4 C 86 % 1009,4 hPa #9,8 l/m 10,3 km/h (2 Bft) W-SW 3,1 C 3,5 C
(c) by David Heller